www.pogodaiklimat.ru

Погода и климат >> Архив погоды >> Южная Африка >> Мыс Колумбайн


ПОГОДА на Мысе Колумбайн

  • Прогноз погоды на Мысе Колумбайн
  • Монитор погоды на Мысе Колумбайн

АРХИВ ПОГОДЫ на Мысе Колумбайн

Время (UTC), дата Ветер
(напр.,м/с)
 
Видим.   Явления Облачность Т
(С)
Тd
(С)
f
(%)
Тe
(С)
Тes
(С)
Комфортность P
(гПа)
Po
(гПа)
Тmin
(С)
Tmax
(С)
R
(мм)
R24
(мм)
S
(см)
21 11.09 З 2 н/о н/о +14.2 +11.7 85 +14 +14 1015.9 1008.5 +13.8 +17.3
00 12.09 СВ 2 н/о н/о +13.1 +11.5 90 +12 +12 1015.4 1008.0 +12.8 +17.3
03 12.09 СЗ 3 н/о н/о +13.6 +12.6 94 +13 +13 1014.8 1007.4 +12.8 +17.3
06 12.09 ЮВ 1 20 км 10/10 300 м
[Sc]
+12.7 +11.6 93 +13 +13 1016.0 1008.6 +12.4 1
09 12.09 ЮЗ 7 н/о н/о +13.8 +11.1 84 +11 +11 1017.1 1009.7 +12.4 +15.6
12 12.09 ЮЗ 7 <100 м 9/9 300 м
[Sc]
+15.7 +8.2 61 +14 +14 1017.8 1010.4 +12.4 +16.0
15 12.09 ЮЗ 6 н/о н/о +14.2 +5.6 56 +12 +12 1019.8 1012.4 +14.2 +16.0
18 12.09 З 4 20 км 8/8 300 м
[Sc]
+13.0 +9.1 77 +11 +11 1021.3 1013.8 +12.9 +16.0
21 12.09 З 5 н/о н/о +13.0 +9.8 81 +11 +11 1022.6 1015.1 +12.9 +16.0
00 13.09 Ю 6 н/о н/о +11.9 +8.7 81 +9 +9 1023.3 1015.8 +11.8 +16.0
03 13.09 В 3 н/о н/о +10.4 +9.0 91 +8 +8 1022.7 1015.1 +10.4 +16.0
06 13.09 СВ 2 20 км 10/10 300 м
[Sc]
+11.0 +9.9 93 +10 +10 1024.6 1017.0 +10.4 1
09 13.09 ЮЗ 2 н/о н/о +14.5 +9.9 74 +14 +14 1024.8 1017.3 +10.4 +14.8
12 13.09 ЮЗ 6 20 км 8/8 300 м
[Sc]
+15.1 +7.2 59 +14 +15 1023.7 1016.3 +10.4 +15.8
15 13.09 Ю 5 н/о н/о +14.1 +6.0 58 +13 +13 1022.5 1015.0 +14.0 +15.8
18 13.09 Ю 5 20 км 8/0
[Ac und]
+12.0 +7.1 72 +10 +10 1023.0 1015.5 +11.8 +15.8
21 13.09 ЮВ 5 н/о н/о +11.2 +5.9 70 +9 +9 1022.0 1014.5 +11.1 +15.8
00 14.09 ЮВ 5 н/о н/о +11.2 +4.6 64 +9 +9 1020.5 1013.0 +10.8 +15.8
03 14.09 ЮВ 5 н/о н/о +10.7 +4.8 67 +8 +8 1019.3 1011.8 +10.0 +15.8
06 14.09 ЮВ 1 20 км 10/10 300 м
[Sc]
+11.5 +5.4 66 +11 +11 1020.0 1012.5 +10.0
09 14.09 С 3 н/о н/о +14.7 +5.5 54 +14 +14 1019.4 1012.0 +10.0 +16.0
12 14.09 ЮЗ 3 н/о н/о +16.2 +8.2 59 +16 +16 1018.2 1010.8 +10.0 +17.3
15 14.09 ЮЗ 4 н/о н/о +15.8 +7.8 59 +15 +15 1017.2 1009.8 +15.7 +17.3
18 14.09 Ю 4 20 км 6/0
[Ac As]
+13.1 +8.2 72 +12 +12 1017.5 1010.1 +12.9 +17.3
21 14.09 ЮВ 2 н/о н/о +13.1 +8.8 75 +13 +13 1018.1 1010.6 +12.9 +17.3
00 15.09 СВ 2 н/о н/о +12.8 +8.9 77 +12 +12 1017.5 1010.0 +12.7 +17.3
03 15.09 СВ 3 н/о н/о +12.0 +8.8 81 +11 +11 1017.1 1009.6 +11.5 +17.3
06 15.09 С 4 20 км 8/0
[Cs]
+13.7 +11.6 87 +12 +13 1018.4 1011.0 +11.0
09 15.09 С 5 н/о н/о +16.2 +12.0 76 +15 +15 1018.9 1011.5 +11.0 +16.4
12 15.09 СЗ 4 н/о н/о +16.6 +12.6 77 +16 +16 1018.3 1010.9 +11.0 +17.3
15 15.09 СЗ 2 н/о н/о +16.6 +12.9 79 +17 +17 1017.5 1010.1 +16.3 +17.7
18 15.09 штиль 0 н/о н/о +15.3 +13.1 87 +15 +15 1018.5 1011.1 +15.0 +17.7
21 15.09 штиль 0 н/о н/о +15.1 +13.8 92 +15 +15 1018.7 1011.3 +14.8 +17.7
00 16.09 штиль 0 н/о н/о +14.8 +13.3 91 +14 +14 1018.7 1011.3 +14.8 +17.7
03 16.09 СВ 2 н/о н/о +14.4 +13.4 94 +14 +14 1018.2 1010.8 +14.4 +17.7
06 16.09 С 2 20 км 10/10 300 м
[Sc]
+14.2 +13.7 97 +14 +14 1019.4 1012.0 +14.0
09 16.09 С 3 н/о н/о +17.8 +13.5 76 +18 +18 1019.4 1012.1 +14.0 +18.0
12 16.09 ЮЗ 3 30 км ясно +18.3 +13.6 74 +19 +30 1018.2 1010.9 +14.0 +18.8
15 16.09 Ю 5 н/о н/о +16.9 +14.7 87 +16 +16 1017.6 1010.2 +16.9 +18.8
18 16.09 Ю 7 20 км ясно +14.7 +13.7 94 +13 +13 1018.1 1010.7 +14.7 +18.8
21 16.09 Ю 7 н/о н/о +14.4 +13.7 96 +12 +12 1018.4 1011.0 +14.1 +18.8
00 17.09 Ю 6 н/о н/о +14.0 +13.3 96 +12 +12 1017.7 1010.3 +13.9 +18.8
03 17.09 Ю 8 н/о н/о +14.7 +14.0 96 +12 +12 1016.7 1009.3 +13.6 +18.8
06 17.09 Ю 7 20 км 10/10 300 м
[Sc]
+15.3 +14.5 95 +13 +13 1017.8 1010.4 +13.6
09 17.09 Ю 8 н/о н/о +17.2 +14.1 82 +16 +16 1017.9 1010.6 +13.6 +17.2
12 17.09 Ю 8 20 км 1/0
[Ac As]
+18.0 +14.3 79 +17 +20 1016.8 1009.5 +13.6 +18.6 0.4
15 17.09 Ю 7 н/о н/о +17.1 +14.9 87 +16 +16 1015.9 1008.6 +17.1 +18.6
18 17.09 Ю 8 н/о н/о +14.8 +14.3 97 +13 +13 1017.7 1010.3 +14.7 +18.6 0.4
21 17.09 Ю 9 н/о н/о +14.4 +13.9 97 +12 +12 1018.4 1011.0 +14.4 +18.6
00 18.09 Ю 7 н/о н/о +14.0 +13.5 97 +12 +12 1018.4 1011.0 +13.7 +18.6 0.4
03 18.09 Ю 6 н/о н/о +14.7 +14.2 97 +13 +13 1017.5 1010.1 +13.6 +18.6
06 18.09 Ю 5 20 км 9/0
[Ac As]
+14.7 +14.2 97 +13 +13 1018.6 1011.2 +13.6 0.4
09 18.09 Ю 4 н/о н/о +17.9 +15.1 84 +18 +18 1018.2 1010.9 +13.6 +17.9
12 18.09 Ю 7 20 км 10/0
[Cs]
+17.5 +14.8 84 +17 +19 1015.9 1008.6 +13.6 +18.8
15 18.09 Ю 7 н/о н/о +15.5 +13.8 90 +14 +14 1014.8 1007.4 +15.5 +18.8

 

Местоположение метеостанции Мыс Колумбайн (Южная Африка): широта -32.83 долгота 17.85 высота над уровнем моря 67 м.

В архиве по умолчанию представлена погода на Мысе Колумбайн за последнюю неделю. Архивные данные за месяц целиком и за предыдущие месяцы, начиная с января 2011 года, Вы можете получить, выбрав интересующий диапазон дат из раскрывающегося списка и нажав кнопку "Ввод!".


*Определитесь, кто Вы:
робот инопланетянин человек

Внимание! Время в таблицах - всемирное. Для получения местного времени необходимо прибавить поправку, которая равна 2 ч.

Смотрите также архив погоды в соседних городах и на ближайших метеорологических станциях:

Погода в Лангебане (Южная Африка) (32 км)
Погода в Лангебаанвеге (Южная Африка) (33 км)
Погода в Гилбеке (Южная Африка) (48 км)
Погода в Ламбертс-Бей (Южная Африка) (100 км)
Погода в Малмсбери (Южная Африка) (107 км)
Погода на Роббенэйланде (Южная Африка) (118 км)
Погода в Клануильяме (Южная Африка) (121 км)
Погода в Кейптаун порту (Южная Африка) (131 км)
Погода в Йестерпланте (Южная Африка) (133 км)
Погода в Кейптауне (Южная Африка) (134 км)

Пояснения к столбцам:

Ветер - указаны скорость ветра в м/с - средняя за 10 мин, порывы в срок и между сроками (в фигурных скобках) и направление, откуда дует ветер: С - северный, СВ - северо-восточный, В - восточный, ЮВ - юго-восточный, Ю - южный, ЮЗ - юго-западный, З - западный, СЗ - северо-западный.
Видимость - горизонтальная дальность видимости в метрах или километрах. При видимости от 1 до 10 км при отсутствии осадков обычно наблюдается дымка, при ухудшении видимости до 1 км и менее - туман. В сухую погоду видимость может ухудшаться дымом, пылью или мглою.
Явления - указаны атмосферные явления, наблюдавшиеся в срок или в последний час перед сроком; фигурными скобками обозначены явления, наблюдавшиеся между сроками (за 1-3 часа до срока); квадратными скобками обозначены град или гололедные отложения с указанием их диаметра в мм.
Облачность - указаны через наклонную черту общая и нижняя облачность в баллах и высота нижней границы облаков в метрах; квадратными скобками обозначены формы облаков: Ci - перистые, Cs - перисто-слоистые, Cc - перисто-кучевые, Ac - высококучевые, As - высокослоистые, Sc - слоисто-кучевые, Ns - слоисто-дождевые, Cu - кучевые, Cb - кучево-дождевые. Подробнее классификацию облаков см. в Атласе облаков (PDF).
T - Температура воздуха - температура, измеренная на высоте 2 м над землей.
Td - Температура точки росы - температура, при понижении до которой содержащийся в воздухе водяной пар достигнет насыщения.
f - Относительная влажность воздуха - влажноcть воздуха, измеренная на высоте 2 м над землей.
Te - Эффективная температура - температура, которую ощущает одетый по сезону человек в тени. Характеристика душности погоды. При расчете учитывается влияние влажности воздуха и скорости ветра на теплоощущения человека.
Tes - Эффективная температура на солнце - температура, которую ощущает человек, с поправкой на солнечный нагрев. Характеристика знойности погоды. Зависит от высоты солнца над горизонтом, облачности и скорости ветра. Ночью, в пасмурную погоду, а также при ветре 12 м/с и более поправка равна нулю.
P - Атмосферное давление - приведенное к уровню моря атмосферное давление.
Po - Атмосферное давление - измеренное на уровне метеостанции атмосферное давление.
Tmin - Минимальная температура - минимум температуры воздуха на высоте 2 м над землей.
Tmax - Максимальная температура - максимум температуры воздуха на высоте 2 м над землей.
R - Количество осадков - Количество выпавших осадков за период времени, мм. При наведении курсора мыши на число - период времени, за который выпало указанное количество осадков.
R24 - Количество осадков - Количество выпавших осадков за 24 часа, мм.
S - Снежный покров - Высота снежного покрова, см. При наведении курсора мыши на число - состояние снежного покрова и степень покрытия местности в баллах.